TimePST,TemperatureF,Dew PointF,Humidity,Sea Level PressureIn,VisibilityMPH,Wind Direction,Wind SpeedMPH,Gust SpeedMPH,PrecipitationIn,Events,Conditions,WindDirDegrees,DateUTC
12:56 AM,48.0,42.1,80,29.96,10.0,ESE,5.8,-,N/A,,Clear,120,2012-11-07 08:56:00
1:56 AM,48.9,42.1,77,29.96,10.0,Calm,Calm,-,N/A,,Partly Cloudy,0,2012-11-07 09:56:00
2:56 AM,50.0,41.0,71,29.98,10.0,NW,10.4,-,N/A,,Overcast,310,2012-11-07 10:56:00
3:56 AM,50.0,37.9,63,29.98,10.0,NW,13.8,19.6,N/A,,Overcast,310,2012-11-07 11:56:00
4:56 AM,48.9,37.9,66,30.01,10.0,NNW,9.2,-,N/A,,Overcast,330,2012-11-07 12:56:00
5:56 AM,46.9,35.1,63,30.04,10.0,NW,16.1,-,N/A,,Mostly Cloudy,310,2012-11-07 13:56:00
6:56 AM,43.0,32.0,65,30.08,10.0,NNW,8.1,-,N/A,,Overcast,330,2012-11-07 14:56:00
7:04 AM,42.8,30.2,61,30.08,10.0,NW,9.2,-,N/A,,Mostly Cloudy,320,2012-11-07 15:04:00
7:56 AM,43.0,25.0,49,30.11,10.0,NW,8.1,-,N/A,,Mostly Cloudy,310,2012-11-07 15:56:00
8:56 AM,44.1,27.0,51,30.12,10.0,WNW,10.4,17.3,N/A,,Mostly Cloudy,300,2012-11-07 16:56:00
9:56 AM,46.0,26.1,46,30.12,10.0,WNW,10.4,-,N/A,,Mostly Cloudy,300,2012-11-07 17:56:00
10:56 AM,48.9,25.0,39,30.09,10.0,WNW,11.5,17.3,N/A,,Scattered Clouds,290,2012-11-07 18:56:00
11:56 AM,50.0,25.0,38,30.07,10.0,North,6.9,-,N/A,,Clear,350,2012-11-07 19:56:00
12:56 PM,50.0,25.0,38,30.05,10.0,North,9.2,16.1,N/A,,Clear,350,2012-11-07 20:56:00
1:56 PM,50.0,26.1,39,30.04,10.0,NW,10.4,18.4,N/A,,Clear,320,2012-11-07 21:56:00
2:56 PM,48.9,25.0,39,30.03,10.0,NNW,10.4,18.4,N/A,,Clear,340,2012-11-07 22:56:00
3:56 PM,46.0,26.1,46,30.02,10.0,NW,10.4,-,N/A,,Clear,320,2012-11-07 23:56:00
4:56 PM,43.0,27.0,53,30.02,10.0,NW,6.9,-,N/A,,Clear,320,2012-11-08 00:56:00
5:56 PM,39.0,27.0,62,30.02,10.0,NNW,6.9,-,N/A,,Partly Cloudy,340,2012-11-08 01:56:00
6:56 PM,32.0,25.0,75,30.02,10.0,Calm,Calm,-,N/A,,Clear,0,2012-11-08 02:56:00
7:56 PM,30.9,25.0,79,30.00,10.0,Calm,Calm,-,N/A,,Clear,0,2012-11-08 03:56:00
8:56 PM,28.0,24.1,85,29.98,10.0,WSW,3.5,-,N/A,,Clear,240,2012-11-08 04:56:00
9:56 PM,26.1,23.0,88,29.96,10.0,South,4.6,-,N/A,,Clear,170,2012-11-08 05:56:00
11:56 PM,26.1,23.0,88,29.91,10.0,SSE,3.5,-,N/A,,Overcast,150,2012-11-08 07:56:00